Regional Weather Roundup
Issued by NWS New Orleans/Baton Rouge, LA

Home | Current Version | Previous Version | Text Only | Print | Product List | Glossary On
Versions: 1 2 3 4 5 6 7 8 9 10 11 12 13 14 15 16 17 18 19 20 21 22 23 24 25 26 27 28 29 30 31 32 33 34 35 36 37 38 39 40 41 42 43 44 45 46 47 48 49 50
653
ASUS44 KLIX 261611
RWRLIX
NEW ORLEANS REGIONAL WEATHER ROUNDUP
NATIONAL WEATHER SERVICE NEW ORLEANS LA
1100 AM CDT MON SEP 26 2016

NOTE: "FAIR" INDICATES FEW OR NO CLOUDS BELOW 12,000 FEET WITH NO
      SIGNIFICANT WEATHER AND/OR OBSTRUCTIONS TO VISIBILITY.
      SKY/WX - SKY CONDITION AND SIGNIFICANT WEATHER.
      TMP - AIR TEMPERATURE.     DP    - DEWPOINT TEMPERATURE.
      RH  - RELATIVE HUMIDITY.   PRES  - PRESSURE.
      HI  - HEAT INDEX.          WCI   - WIND CHILL INDEX.

*  THESE STATIONS ARE NOT NWS OR FAA STATIONS AND ARE NOT UNDER
   NWS QUALITY CONTROL.

LAZ038-040-048-061>063-065>067-069-261700-
SOUTHEAST LOUISIANA

CITY           SKY/WX    TMP DP  RH WIND       PRES   REMARKS
N.O. AUDUBON     N/A     90  74  58 MISG        N/A  HX  99
N.O. INTL ARPT MOSUNNY   88  73  61 NW6       30.03S HX  95
N.O. LAKEFRONT MOSUNNY   85  74  69 N5        30.04R
N.O. DOWNTOWN*   N/A     85  74  69 VRB5      30.04S
RESERVE*         N/A     88  73  59 CALM      30.03F HX  96
SLIDELL        SUNNY     85  73  67 N7        30.02S
BATON ROUGE    SUNNY     88  72  58 CALM      30.03F
BOOTHVILLE     SUNNY     87  71  58 VRB3      30.03S
BELLE CHASSE   PTSUNNY   87  74  64 VRB6      30.03R HX  95
BOGALUSA*        N/A     86  71  60 CALM      30.05S
GALLIANO*      NOT AVBL
NEW ROADS*       N/A     86  73  64 MISG      30.04S
GONZALES*        N/A     86  72  62 CALM      30.02F
HAMMOND*       SUNNY     88  68  51 NW5       30.02S
HOUMA*         SUNNY     84  72  65 N5        30.03
PORT FOURCHON* MOSUNNY   86  73  66 VRB6      30.03S

$$

MSZ070-080>082-261700-
SOUTHERN MISSISSIPPI

CITY           SKY/WX    TMP DP  RH WIND       PRES   REMARKS
MCCOMB         SUNNY     86  69  56 NW6       30.04F
GULFPORT       SUNNY     87  70  56 CALM      30.02S
BILOXI         SUNNY     86  72  62 N3        30.02S
PASCAGOULA     SUNNY     88  73  61 N8        30.02F HX  95
STENNIS ARPT*  SUNNY     84  66  54 VRB5      30.03S

$$

COASTAL OBSERVATIONS
LAKE AND NEARSHORE STATIONS

STATION/POSITION TIME  TEMP    WIND        PRES    WAVE
                       AIR SEA DIR/SP/G            HT/PER
                 (UTC) (F)     (DEG/KT/KT) (MB)    (FT/S)
PASCAGOULA       1500   85     340/  3/  6 1016.5
WAVELAND YACHT   1500   81 85  360/  6/  7 1016.9
GRAND ISLE       1500   84 88   30/  7/ 10 1017.0
SOUTHWEST PASS   1500           10/  9/ 12   N/A
NEW CANAL        1500   81 85  360/  6/  7 1016.3
SHELL BEACH      1500   82 86  340/  3/  6 1016.9

OFFSHORE STATIONS

STATION/POSITION TIME  TEMP    WIND        PRES    WAVE
                       AIR SEA DIR/SP/G            HT/PER
                 (UTC) (F)     (DEG/KT/KT) (MB)    (FT/S)
64 S DAUPHIN ISL 1500   81 85  360/ 10/ 12 1016.3

$$





USA.gov is the U.S. government's official web portal to all federal, state and local government web resources and services.